Starlink 11646

operational
NORAD ID: 63186 Int'l Des: 2025-048 Owner: SPXS Country: US Constellation: starlink
LEOCIRCULAR

About Starlink 11646

Description loading...

Live Position

Loading 3D Globe...

Upcoming Passes

Altitude History

Altitude vs Time

uPlot chart will show altitude changes over time

Two-Line Element Set

1 63186U 25048D 25303.27081086 .00236900 00000-0 17900-2 0 9997
2 63186 42.9994 25.6635 0002042 298.1546 61.9115 15.70940315 38013
Epoch: Oct 30, 2025 • Age: 19 hours

Current Status

Altitude 358.1 km
Velocity 7.70 km/s
Sub-Earth Point 38.70°N, 23.77°E
Launch Date Mar 13, 2025
Age 0.6 years
Type internet

Technical Details

Classification Payload
Mass 960.00 kg
Dry Mass 910.00 kg
Total Mass 960.00 kg
Length 0.30 m
Diameter 4.10 m
Span 29.00 m
Shape Box + pan
Manufacturer SPXS
Bus Type Starlink V2MD
Phase Status In Orbit
Owner/State SPXS/US

Large Constellations

Loading constellations...